{"data":{"norad_id":60092,"intl_designator":"2024-117B","name":"STARLINK-32044","alt_names":[],"object_type":"PAYLOAD","status":"ACTIVE","operator":null,"country":"US","launch_date":"2024-06-23","launch_site_code":"AFETR","launch_vehicle":null,"mission":null,"orbit_class":"UNKNOWN","rcs_meters":null,"size_class":null,"mass_kg":null,"dimensions":null,"purposes":["comms"],"wikipedia_slug":null,"has_3d_model":false,"image_url":null,"decayed_at":null,"tle_current":{"epoch":"2026-09-21T05:24:15.534720Z","epoch_age_seconds":115582,"freshness":"FRESH","line1":"1 60092U 24117B   26264.22517980 -.00000986  00000+0 -18086-4 0  9997","line2":"2 60092  53.1601 206.0569 0000625 119.0010 241.1056 15.34383536126861","mean_motion":15.34383536,"eccentricity":6.25e-5,"inclination_deg":53.1601,"raan_deg":206.0569,"arg_perigee_deg":119.001,"mean_anomaly_deg":241.1056,"bstar":-1.8086e-5,"rev_number":12686,"period_min":93.848765071734,"perigee_km":462.32461954885,"apogee_km":463.17973069574,"semimajor_km":6840.8891751223,"source":"CELESTRAK","updated_at":"2026-09-22T09:00:49.149478Z"}}}